Showing default

S80/T, 22078

Orbit data source: Space-Track

S80/T, 22078 is a payload satellite owned by CNES (FR) in LEO that was launched on Mon, 10 Aug 1992 UTC via an ARIANE 42P launch vehicle from the French Guiana (FRGUI). Payload-class satellites include a variety of spacecraft equipped with specific instruments for various scientific and technological missions. These include communications satellites like Starlink; space stations such as the ISS; scientific satellites like the Hubble; Earth observation satellites from companies like Planet Labs, Umbra, and HawkEye 360; GPS; miniature CubeSats for education and research; and military/defense satellites.

Loading next visibility...
Identifier
22078, 1992-052C
Orbit
LEO
Country
Flag of FRFR
Related business
Manufacturer
SSTL/MMST
Mission
Civil Communications
Bus & Motor
UOSAT, Unknown motor
Mass
50 kg wet, 50 kg dry
Launch date (UTC)
1992-08-10 (33 years ago)
Launch vehicle
ARIANE 42P
Launch site
French Guiana (FRGUI)
Object type
Payload
Rocket body
Debris
Shape & HBR
Hex Poly, 0.3 m
Radar Cross Section
0.140 m², Medium (>0.1 m² and < 1m²)

Expand to show TLE details & history
Last TLE update: 14 hours ago

TLE from 14 hours ago
0 S80/T
1 22078U 92052C   25354.50438235 -.00000045  00000-0  66876-4 0  9993
2 22078  66.0860 282.9439 0010822 327.5223  32.5128 12.86847602567240
Epoch: 2025-12-20T12:06Z
TLE epoch observation values (Epoch: 2025-12-20T12:06:18.635Z)
Latitude
-0.00006°
Longitude
12.03599°
Altitude
1,308.962 km
Speed
7.206 km/s
True Right ascension
18h 51m 46s
True Declination
0° 00' 00"
Sunlit
Object was in daylight at epoch
Visualization orbit readout
Latitude
Unknown
Longitude
Unknown
Altitude
Unknown
Speed
Unknown
Apparent Right ascension
Unknown
Apparent Declination
Unknown
Sunlit
N/A
Visualization observer readout
Local Sidereal Time
00:41:25
Azimuth
Unknown
Elevation
Unknown
Doppler factor
Unknown
Orbital elements
Apogee altitude
1,320.937 km
Perigee altitude
1,304.291 km
Semi-major axis
7,690.751 km
Eccentricity
0.00108
Inclination
66.086°
RAAN
282.9439°
Arg. of periapsis
327.5223°
True anomaly
32.57953°
Mean anomaly
32.5128°
Eccentric anomaly
32.54616°
Mean motion
3.21803 °/min
Orbital period
111.87 mins
BSTAR
0.000066876
Loading maneuver chart data...
Computing Atmospheric mass density...
Loading historical data...
Loading historical data...
Loading historical data...
Loading historical data...
Loading historical data...
Loading historical data...
Loading historical data...

Documentation

Showing up to 5 results
|